Wind_Speed
13 13 12 12 11 11 10 8 9 11 13 14 15 17 19 20 21 22 23 23 23 23 22 20 18 16 15 15 15 16 14 14 16 16 16 15 13 11 9 8 8 8 8
13 14 14 14 14 12 10 8 9 11 13 15 16 17 19 19 19 20 21 22 22 23 23 22 20 19 17 16 17 18 17 16 15 15 15 14 13 10 9 8 8 9 9
12 14 14 14 15 14 13 11 10 11 14 16 17 17 18 18 19 19 19 20 21 22 22 21 20 19 18 18 18 20 19 18 16 16 15 15 13 11 9 8 8 9 10
10 13 14 14 14 15 14 12 12 13 15 17 18 17 17 17 19 20 19 19 19 20 20 20 19 18 18 18 19 20 20 19 17 17 16 16 15 12 9 8 8 8 9
11 12 14 15 15 16 16 14 12 14 17 19 19 18 17 17 18 18 18 17 17 18 19 18 16 16 17 19 20 21 21 20 18 17 17 17 16 14 11 8 7 7 9
13 14 15 16 17 19 19 18 16 15 19 21 21 19 17 17 17 17 17 15 16 17 17 17 17 16 17 19 20 21 21 21 20 19 18 18 17 16 13 10 9 8 9
16 18 18 18 20 21 21 21 20 18 19 21 22 19 17 16 16 17 16 15 16 16 16 17 18 17 18 19 20 21 22 22 22 21 20 20 19 18 16 14 11 10 10
18 20 21 21 23 24 24 24 24 21 20 21 22 20 18 16 16 16 16 16 16 16 16 17 19 19 20 21 20 20 21 22 23 23 23 23 22 21 19 18 15 14 13
21 22 23 24 25 26 26 26 25 23 21 22 23 21 20 18 17 16 15 15 16 16 17 18 19 21 22 23 22 21 21 21 22 23 23 23 23 22 22 21 19 17 16
23 24 24 24 25 27 27 27 25 23 22 23 24 23 22 20 18 16 15 14 15 16 16 18 19 21 23 24 23 21 20 19 20 20 20 20 20 20 21 22 22 20 20
24 24 24 24 25 26 27 27 25 24 24 25 26 25 24 23 21 18 16 14 14 14 15 16 18 20 23 23 23 21 19 19 19 19 18 18 18 19 20 20 21 21 21
23 23 23 24 25 26 26 26 25 25 25 27 28 27 26 24 22 20 18 16 15 14 14 15 16 18 21 22 23 22 20 20 20 20 19 18 18 19 19 19 19 19 20
23 23 23 23 24 25 24 24 24 25 27 27 27 28 27 25 24 22 21 18 16 15 14 14 15 16 18 20 22 22 22 21 21 21 20 19 19 18 18 17 17 17 18
24 23 22 22 23 22 22 21 22 23 25 25 24 24 26 25 24 25 24 22 20 18 17 16 15 15 15 16 18 19 20 21 21 21 20 19 18 16 15 14 15 16 17
23 23 22 22 21 21 19 18 18 20 22 23 21 21 22 23 23 24 25 25 24 23 22 20 18 17 16 16 17 17 18 19 20 20 20 19 18 17 16 15 16 16 17
22 21 21 21 20 19 17 15 14 16 18 20 21 21 20 21 22 22 23 26 27 27 26 24 23 21 20 19 19 18 18 19 20 20 20 20 19 19 18 18 18 18 18
21 20 20 19 18 16 15 14 13 14 15 17 19 20 20 21 21 22 24 26 28 29 29 29 27 25 23 22 21 21 20 20 20 20 21 21 21 21 20 20 20 19 19
19 19 18 18 17 16 15 14 13 13 14 15 17 18 19 20 21 22 23 25 28 30 30 30 30 30 28 26 24 23 22 22 22 22 23 23 23 23 22 21 21 20 20
17 17 17 17 17 17 16 16 15 15 15 16 17 18 19 20 22 22 24 26 29 31 31 32 32 32 31 29 27 27 26 24 23 23 24 24 24 24 24 23 23 22 22
18 18 17 17 17 18 19 19 19 18 18 18 19 20 20 21 21 22 24 26 29 33 34 33 34 35 33 32 30 30 29 27 25 24 26 26 26 25 26 26 25 25 24
20 20 19 18 18 18 20 21 22 22 22 22 22 23 23 23 23 23 23 25 29 33 36 36 37 37 36 35 34 32 31 28 26 27 27 27 27 27 27 27 28 28 28
19 20 20 21 20 20 21 22 23 23 23 23 24 25 25 25 25 24 22 22 25 30 34 37 38 37 37 37 36 34 32 30 30 31 29 29 28 29 29 29 30 31 31
21 21 21 21 22 22 22 22 23 23 24 24 25 25 25 26 25 24 22 21 22 26 31 35 37 38 37 37 37 36 35 32 32 32 32 33 34 33 33 32 33 34 34
22 23 23 23 22 23 24 23 23 23 24 24 25 26 25 25 25 24 22 22 21 22 25 31 35 36 36 35 36 36 35 33 32 32 33 34 35 34 33 34 34 35 36
22 22 23 22 21 21 21 22 22 22 22 23 24 25 26 26 25 24 24 23 22 22 21 24 28 30 31 31 32 32 33 32 32 33 33 33 34 32 31 32 33 33 35
21 21 21 21 20 20 20 20 20 21 21 22 22 23 25 26 26 25 24 24 23 22 22 21 22 23 25 26 27 29 31 31 32 33 34 34 34 33 31 32 33 33 34
Wind_Direction
6 8 2 351 347 343 334 308 278 262 254 249 243 243 244 245 245 246 246 246 248 251 254 254 251 251 249 240 229 219 214 211 207 208 207 207 211 223 241 251 257 264 267
352 354 358 352 349 345 333 306 283 267 257 253 251 249 248 246 245 245 247 248 249 249 249 247 244 246 249 240 229 217 209 207 203 201 201 203 210 223 241 252 258 265 271
338 341 344 342 339 340 338 318 291 270 257 253 253 253 254 251 246 246 248 251 250 248 246 243 240 243 247 238 226 214 208 207 207 205 205 206 210 221 237 248 255 264 269
320 326 326 326 324 326 327 320 297 277 262 255 253 253 256 255 247 246 250 252 249 245 243 244 240 242 243 234 223 213 209 210 212 213 212 210 212 220 231 241 251 260 264
306 310 312 311 308 308 309 307 299 283 270 261 256 254 255 255 248 246 248 248 246 242 241 240 240 243 242 232 221 215 213 213 215 217 218 216 216 221 230 237 244 254 254
299 301 300 298 296 296 296 296 291 282 272 265 258 255 254 252 245 243 243 242 241 238 235 235 239 244 238 227 220 218 217 218 220 222 223 222 221 226 233 240 242 243 239
294 296 294 291 288 288 287 285 283 277 269 263 258 254 252 247 239 240 242 238 233 228 226 228 234 238 231 221 217 217 218 220 223 226 227 227 227 231 237 244 244 238 229
293 293 292 288 285 283 280 278 278 275 265 259 255 251 246 240 236 240 241 233 224 222 224 226 230 232 226 219 215 215 217 221 225 229 231 232 234 237 241 243 241 233 225
293 291 290 285 280 278 277 275 274 271 260 253 250 247 244 239 236 235 235 229 220 221 225 229 230 229 225 221 218 217 218 221 225 229 232 235 236 238 239 239 236 230 222
291 288 286 282 277 275 273 270 268 266 256 250 246 241 241 240 233 230 231 228 219 218 224 230 232 228 225 224 222 221 222 224 225 226 228 229 231 232 233 233 230 227 223
291 288 286 283 280 276 269 265 262 258 253 249 247 242 240 239 231 227 228 228 221 217 220 227 231 228 225 225 226 225 226 227 225 224 224 226 229 229 228 226 226 225 225
291 288 287 285 281 277 270 262 258 254 251 249 246 242 241 239 230 226 227 229 226 219 217 221 227 228 227 226 226 227 228 228 227 227 228 232 234 233 230 228 227 228 231
289 288 287 284 280 276 270 262 255 250 247 247 243 239 238 238 232 223 224 227 230 225 218 217 221 226 227 228 228 229 229 230 230 231 233 235 236 235 233 232 232 234 239
292 291 288 282 278 274 270 264 254 249 246 245 245 239 235 237 233 223 221 224 228 229 225 221 220 224 227 228 230 230 230 232 235 236 237 236 236 235 235 236 240 243 247
291 290 286 280 275 272 270 264 252 246 246 247 247 243 240 237 236 229 226 225 226 228 230 228 226 226 228 231 232 231 230 231 233 235 234 233 233 234 237 241 245 249 252
288 287 283 277 272 268 265 262 253 245 245 246 246 245 242 239 239 238 239 231 226 227 232 232 230 230 232 233 235 235 232 231 230 230 230 230 231 233 237 241 245 247 249
283 282 278 274 268 264 260 257 251 243 241 241 241 240 240 239 243 246 244 240 233 228 230 235 235 234 235 237 238 237 236 236 235 234 233 233 234 236 240 244 245 246 247
277 277 275 270 265 261 258 256 251 245 242 240 237 237 237 240 244 246 245 244 239 232 230 233 237 238 237 238 240 241 239 239 240 240 240 239 239 241 244 246 247 248 249
273 274 274 270 265 260 259 257 256 253 249 246 243 242 244 245 248 249 248 245 241 237 236 233 234 235 235 237 242 244 243 241 240 241 242 243 243 244 246 248 248 249 249
275 275 274 272 268 262 258 257 256 256 255 254 253 252 252 252 253 253 252 248 243 239 237 235 234 233 233 236 240 241 243 244 243 242 242 244 246 248 248 249 250 250 251
277 275 275 274 272 268 263 259 257 257 256 256 256 256 256 256 257 256 256 254 247 241 236 237 236 234 234 235 236 239 240 242 245 245 243 244 247 250 251 251 251 252 253
284 279 276 273 272 271 269 265 263 261 258 257 257 258 258 259 260 259 258 256 248 241 236 236 235 234 234 234 235 236 239 241 244 246 247 249 250 253 254 254 254 255 256
291 287 282 277 273 270 269 267 265 264 262 260 258 258 258 259 260 258 256 253 248 242 237 234 234 232 232 234 235 237 240 242 243 246 249 252 254 256 258 259 259 258 258
292 290 286 282 278 273 270 268 266 264 263 261 260 258 257 257 257 256 253 250 247 245 242 237 233 232 233 235 236 236 238 240 243 246 248 251 254 256 259 261 260 259 258
292 289 287 283 280 275 272 268 264 263 263 262 261 260 259 257 255 254 251 248 247 246 245 242 237 235 234 234 235 236 238 240 243 246 249 251 255 257 258 259 259 257 257
294 291 287 283 279 274 271 269 264 263 263 263 261 261 260 259 257 255 251 249 248 247 245 243 242 240 238 236 237 239 241 242 244 246 248 251 254 257 256 258 258 257 256
Height
5871 5869 5868 5866 5865 5864 5862 5861 5861 5861 5862 5863 5864 5866 5867 5868 5869 5871 5873 5874 5875 5876 5877 5878 5878 5879 5880 5881 5881 5882 5883 5884 5886 5889 5891 5893 5894 5895 5895 5895 5896 5896 5896
5869 5868 5866 5864 5863 5862 5861 5860 5859 5859 5859 5860 5861 5862 5863 5864 5865 5866 5868 5869 5871 5872 5872 5873 5875 5876 5877 5877 5879 5880 5881 5883 5885 5887 5889 5891 5892 5893 5894 5894 5894 5894 5894
5867 5865 5864 5862 5861 5859 5859 5858 5857 5857 5857 5856 5857 5858 5859 5860 5861 5862 5863 5865 5866 5867 5868 5869 5871 5872 5873 5874 5876 5877 5879 5881 5883 5886 5888 5890 5891 5892 5892 5892 5893 5893 5893
5864 5863 5862 5860 5858 5857 5856 5855 5854 5854 5853 5853 5853 5854 5855 5856 5857 5858 5859 5860 5861 5862 5864 5865 5867 5869 5870 5871 5873 5875 5877 5879 5881 5884 5886 5888 5889 5890 5890 5891 5891 5891 5891
5861 5860 5858 5857 5856 5854 5852 5852 5851 5850 5849 5849 5849 5850 5851 5851 5852 5854 5855 5856 5856 5858 5860 5861 5863 5865 5867 5868 5870 5872 5874 5876 5879 5881 5883 5885 5887 5888 5888 5888 5889 5889 5890
5856 5855 5854 5853 5852 5850 5849 5847 5847 5846 5845 5844 5844 5845 5846 5847 5848 5850 5851 5852 5853 5854 5856 5858 5860 5862 5863 5865 5867 5869 5871 5873 5875 5878 5880 5882 5884 5885 5886 5886 5887 5887 5888
5851 5850 5849 5848 5846 5845 5844 5843 5842 5841 5840 5839 5839 5840 5841 5843 5845 5846 5847 5848 5849 5850 5852 5854 5856 5858 5860 5861 5863 5865 5867 5869 5872 5874 5876 5878 5880 5882 5883 5883 5884 5885 5885
5846 5845 5843 5842 5841 5840 5839 5838 5837 5836 5836 5835 5835 5836 5837 5839 5841 5842 5843 5844 5845 5847 5849 5850 5852 5854 5856 5858 5859 5861 5863 5865 5867 5869 5872 5874 5876 5878 5879 5880 5881 5882 5883
5841 5839 5838 5836 5835 5834 5833 5831 5831 5831 5831 5830 5830 5831 5832 5834 5836 5838 5840 5840 5841 5843 5845 5846 5848 5850 5852 5854 5856 5858 5860 5862 5863 5865 5867 5869 5871 5873 5875 5876 5877 5879 5881
5834 5833 5831 5830 5829 5827 5826 5825 5825 5825 5825 5825 5825 5826 5828 5830 5832 5834 5836 5837 5838 5839 5840 5842 5844 5846 5848 5851 5853 5855 5857 5859 5860 5862 5863 5865 5867 5869 5870 5871 5873 5875 5877
5827 5826 5824 5823 5821 5820 5819 5818 5818 5818 5818 5819 5820 5821 5823 5825 5827 5829 5831 5833 5834 5835 5836 5838 5840 5842 5844 5847 5850 5852 5854 5855 5857 5859 5860 5861 5863 5865 5866 5867 5869 5870 5872
5820 5819 5818 5816 5814 5813 5811 5811 5811 5811 5812 5813 5814 5815 5817 5819 5822 5824 5827 5829 5831 5832 5833 5834 5836 5838 5841 5843 5845 5848 5850 5852 5854 5855 5857 5858 5859 5861 5862 5863 5865 5866 5868
5814 5813 5811 5809 5808 5806 5805 5804 5804 5804 5805 5806 5808 5809 5812 5814 5817 5819 5822 5825 5827 5829 5830 5831 5833 5834 5837 5839 5841 5844 5846 5848 5850 5852 5853 5854 5856 5857 5858 5860 5861 5862 5864
5808 5806 5804 5802 5801 5799 5798 5797 5797 5798 5799 5800 5801 5803 5805 5808 5811 5814 5817 5820 5823 5825 5827 5829 5830 5831 5833 5835 5837 5839 5842 5844 5846 5847 5849 5850 5852 5853 5854 5855 5857 5858 5859
5801 5799 5797 5796 5795 5794 5792 5791 5791 5792 5793 5795 5796 5798 5800 5803 5805 5808 5811 5814 5818 5820 5823 5825 5827 5828 5830 5832 5833 5835 5837 5839 5841 5843 5845 5846 5847 5849 5850 5851 5853 5854 5855
5795 5793 5791 5790 5789 5789 5788 5787 5787 5787 5789 5790 5791 5793 5795 5797 5800 5803 5805 5808 5811 5815 5817 5820 5823 5825 5827 5828 5830 5832 5833 5835 5837 5838 5840 5842 5843 5845 5846 5847 5849 5850 5851
5789 5787 5786 5785 5785 5784 5784 5783 5783 5784 5784 5785 5786 5788 5790 5792 5794 5796 5799 5802 5804 5808 5811 5814 5817 5820 5822 5824 5825 5827 5829 5831 5832 5834 5836 5837 5839 5840 5842 5843 5844 5845 5846
5782 5782 5780 5779 5779 5779 5779 5780 5780 5780 5781 5782 5783 5784 5785 5787 5789 5790 5792 5795 5798 5801 5805 5808 5810 5813 5816 5818 5820 5822 5824 5826 5828 5829 5831 5832 5834 5835 5837 5838 5839 5840 5841
5777 5776 5776 5774 5774 5774 5775 5775 5776 5776 5777 5778 5779 5780 5781 5782 5783 5784 5786 5788 5791 5794 5797 5800 5803 5806 5809 5811 5814 5816 5818 5820 5822 5824 5825 5827 5828 5830 5831 5833 5834 5835 5835
5772 5772 5771 5770 5769 5769 5770 5770 5771 5772 5772 5773 5774 5775 5776 5777 5778 5779 5779 5781 5782 5785 5789 5792 5796 5799 5802 5804 5807 5810 5812 5814 5816 5818 5819 5820 5822 5824 5825 5827 5828 5829 5830
5767 5766 5766 5765 5765 5764 5764 5765 5765 5766 5767 5767 5768 5769 5770 5771 5772 5772 5773 5773 5774 5776 5780 5784 5787 5791 5794 5797 5800 5803 5806 5808 5810 5810 5812 5814 5816 5817 5819 5820 5822 5823 5823
5761 5760 5760 5760 5759 5759 5759 5758 5759 5759 5760 5761 5762 5762 5763 5764 5765 5765 5766 5766 5767 5768 5772 5775 5779 5782 5786 5789 5792 5796 5799 5801 5803 5803 5805 5807 5808 5809 5811 5813 5814 5815 5816
5755 5754 5754 5753 5753 5752 5752 5752 5752 5753 5753 5754 5755 5756 5757 5758 5759 5759 5760 5760 5761 5762 5764 5767 5771 5774 5778 5781 5785 5788 5790 5793 5794 5796 5798 5798 5799 5801 5803 5804 5806 5807 5808
5750 5748 5747 5746 5745 5745 5745 5745 5745 5746 5746 5747 5748 5749 5750 5751 5752 5753 5754 5755 5755 5756 5758 5760 5764 5766 5769 5772 5776 5779 5782 5785 5787 5788 5790 5790 5791 5793 5795 5795 5796 5797 5799
5743 5741 5740 5739 5738 5738 5737 5737 5738 5738 5739 5740 5741 5741 5742 5744 5745 5746 5748 5749 5750 5751 5752 5753 5756 5758 5761 5764 5767 5770 5773 5776 5778 5780 5781 5782 5782 5784 5786 5786 5786 5788 5788
5737 5735 5734 5732 5732 5731 5731 5730 5731 5731 5732 5733 5734 5735 5735 5736 5738 5739 5741 5743 5744 5746 5747 5748 5750 5752 5754 5756 5759 5762 5764 5767 5769 5771 5772 5773 5773 5775 5777 5776 5777 5778 5778